User: anonymous   Login
Location: Newark
(41.0400°S, 62.7845°W)
Time: 03:44:23
(UTC+00:00)
Language:

Vanguard 2 - Orbit

View from above orbital plane
View from above orbital plane
View from above satellite
View from above satellite

Ground track
Ground track

The orbit data is extracted from the following two-line orbital elements,

1    11U 59001A   21331.83357240  .00000291  00000-0  15327-3 0  9992
2    11  32.8680 231.3712 1465986 354.6851   3.9588 11.85812980679458
Epoch (UTC): 27 November 2021 20:00:20
Eccentricity: 0.1465986
inclination: 32.8680°
perigee height: 554 km
apogee height: 2936 km
right ascension of ascending node: 231.3712°
argument of perigee: 354.6851°
revolutions per day: 11.85812980
mean anomaly at epoch: 3.9588°
orbit number at epoch: 67945

The dashed part of the orbit path shows where the satellite is in the earth's shadow,  

DLR